[[{"header":{"parameterUnit":"m.s-1","parameterCategory":1,"la1":30.2991,"la2":30.254,"lo1":-89.0895,"lo2":-89.0444,"dy":0.0017,"dx":0.0017,"nx":28,"ny":28,"refTime":"2024-11-27T03:00:00:Z","depth":0,"parameterNumber":2,"parameterNumberName":"U-component_of_WINDS"},"data":[0,0,0,0,0,0,0,0,0,0,0,0,0,0,0,0,0,0,0,0,0,0,0,0,0,0,0,0,0,0,0,0,0,0,0,0,0,0,0,0,0,0,0,0,0,0,0,0,0,0,0,0,0,0,0,0,0,0,2.8044,2.8044,0,2.809,2.809,2.8091,2.8023,2.8021,2.8019,2.8016,2.8062,2.8066,2.8069,0,0,0,0,0,0,0,0,0,0,0,0,0,2.7894,2.7897,2.8043,2.8044,2.8045,2.809,2.809,2.8091,2.8024,2.8021,2.8018,2.8015,2.8061,2.8065,2.8069,0,0,0,0,0,0,0,0,0,0,0,0,0,2.7952,2.7898,2.8043,2.8017,2.8015,2.809,2.809,2.8091,2.8024,2.8021,2.8017,2.8014,2.806,2.8065,2.807,2.8173,0,0,2.8086,2.8088,0,0,0,0,0,0,0,0,2.7949,2.7957,2.802,2.8019,2.8016,2.8047,2.8055,2.8119,2.8025,2.8021,2.8016,2.8012,2.806,2.8065,2.8081,2.8175,2.8177,2.8086,2.8089,2.8091,2.8093,0,0,0,0,0,0,0,2.7945,2.7955,2.8062,2.8021,2.8019,2.8001,2.8006,2.8066,2.806,2.8021,2.8016,2.8022,2.8058,2.8077,2.8082,2.8178,2.8086,2.809,2.8094,2.8096,2.8357,2.836,0,0,0,0,0,0,2.7944,2.7952,2.806,2.8063,2.7973,2.8007,2.8012,2.8041,2.8059,2.8058,2.8025,2.8019,2.8069,2.8076,2.8083,2.8204,2.8091,2.8096,2.8099,2.8353,2.8358,2.8362,0,0,0,0,0,0,2.7941,2.7955,2.8058,2.8006,2.8018,2.8013,2.8047,2.8044,2.8062,2.8062,2.8061,2.8045,2.8067,2.8076,2.8151,2.8205,2.8098,2.8103,2.8348,2.8354,2.836,2.8447,0,0,0,0,0,0,2.7937,2.7954,2.7994,2.8008,2.8021,2.8126,2.805,2.8047,2.8071,2.8063,2.8081,2.808,2.8065,2.8144,2.8156,2.821,2.8107,2.8344,2.8351,2.8358,2.844,2.8456,2.8469,0,0,0,0,0,2.7932,2.8016,2.7996,2.8009,2.8071,2.813,2.8137,2.8118,2.8076,2.8115,2.8115,2.808,2.8197,2.8152,2.8165,2.8222,2.834,2.8349,2.8357,2.8433,2.8452,2.8469,0,0,0,0,0,0,2.8008,2.8018,2.7995,2.8087,2.8108,2.8118,2.8167,2.814,2.8173,2.8164,2.8139,2.8143,2.8223,2.823,2.8179,2.8322,2.8261,2.8273,2.8314,2.8333,2.8347,2.8343,2.8111,0,0,0,0,0,2.8036,2.8083,2.8089,2.8169,2.8181,2.8172,2.8197,2.8181,2.8201,2.821,2.8216,2.8237,2.8278,2.8306,2.8344,2.844,2.8443,2.8486,2.85,2.8512,2.8523,2.8573,2.8592,2.839,2.839,2.839,0,0,2.8093,2.8104,2.8135,2.8184,2.8199,2.8248,2.818,2.8235,2.8271,2.8218,2.8289,2.8294,2.8315,2.8401,2.8439,2.8409,2.8579,2.8523,2.8533,2.8537,2.8584,2.8603,2.862,2.8396,2.8395,2.8394,0,0,2.8222,2.8235,2.8303,2.8319,2.8342,2.8336,2.8352,2.8367,2.8368,2.8439,2.84,2.8442,2.8514,2.8531,2.8549,2.8683,2.8651,2.8696,2.8773,2.8822,2.8838,2.8852,2.8899,2.8916,2.8707,2.8707,2.8707,0,2.829,2.8362,2.8341,2.8399,2.8421,2.8376,2.8444,2.846,2.8494,2.851,2.8476,2.8565,2.8576,2.8665,2.8698,2.8714,2.8731,2.8694,2.8837,2.8851,2.8864,2.8908,2.8926,2.8712,2.8712,2.8711,2.8711,0,2.8444,2.8495,2.8547,2.8581,2.8609,2.8672,2.8659,2.869,2.8671,2.8669,2.8741,2.8753,2.8792,2.8812,2.8794,2.8898,2.8878,2.8842,2.878,2.8889,2.893,2.8947,2.872,2.8718,2.8716,2.8715,0,0,2.8622,2.8644,2.8663,2.8678,2.8699,2.8738,2.8798,2.8837,2.8863,2.8888,2.8937,2.8999,2.8965,2.8985,2.8969,2.9012,2.9117,2.8969,2.8969,2.8996,2.923,2.9258,2.9278,2.9096,2.9099,2.9102,2.9228,0,2.8749,2.8853,2.8836,2.8937,2.8983,2.8941,2.8992,2.9011,2.901,2.9048,2.9047,2.9091,2.9043,2.9054,2.9096,2.9095,2.9163,2.9086,2.914,2.9142,2.9135,2.93,2.9329,2.9448,2.9244,2.9247,2.9249,0,2.8912,2.8944,2.9049,2.9063,2.9081,2.9129,2.9162,2.92,2.922,2.9216,2.9239,2.9214,2.9272,2.9211,2.9291,2.9238,2.9259,2.9263,2.9267,2.927,2.9202,2.9307,2.9485,2.9503,2.9275,2.9273,2.9271,0,2.903,2.9099,2.917,2.9184,2.9202,2.9236,2.9245,2.9262,2.9286,2.9315,2.9331,2.9366,2.9386,2.9414,2.9399,2.9356,2.9481,2.9418,2.9478,2.9479,2.9506,2.9504,2.969,2.9521,2.9521,2.9521,2.952,0,2.9174,2.924,2.9223,2.9267,2.9339,2.9318,2.939,2.9394,2.9409,2.9452,2.9418,2.9459,2.9437,2.9476,2.9465,2.9532,2.9541,2.9539,2.9535,2.9542,2.9542,2.9555,2.9545,2.9525,2.9524,2.9524,2.9523,0,2.9317,2.9309,2.9384,2.9395,2.94,2.9452,2.9461,2.9502,2.9498,2.9553,2.9565,2.9559,2.9603,2.9591,2.964,2.9632,2.9716,2.9702,2.971,2.9706,2.9766,2.9761,2.9965,2.9991,2.9807,2.9809,2.981,0,2.9409,2.9459,2.9475,2.9502,2.9514,2.9558,2.9582,2.9563,2.959,2.9616,2.9654,2.9695,2.9727,2.98,2.9799,2.9836,2.9821,2.9891,2.9827,2.9831,2.9821,2.9818,2.9822,2.9903,2.9905,2.9907,2.9909,0,2.9573,2.9566,2.9603,2.9639,2.967,2.9697,2.9721,2.9745,2.9727,2.9759,2.9805,2.983,2.9879,2.992,2.9953,2.9961,2.9932,2.9929,2.9944,2.9951,2.9953,2.9952,2.9744,2.9924,2.9923,2.9921,2.9921,2.992,2.9692,2.9734,2.9752,2.9795,2.9811,2.9834,2.9872,2.9874,2.9911,2.995,2.9937,2.9988,3.0006,3.0047,3.006,3.0099,3.0073,3.0095,3.0101,3.0107,3.0114,2.9948,3.0105,3.0105,3.0104,3.0104,3.0104,0,2.9853,2.9863,2.9902,2.9937,2.997,2.994,2.9965,2.9995,3.0041,3.006,3.0092,3.0144,3.0183,3.0186,3.0223,3.0254,3.0241,3.0264,3.0261,3.0263,3.0136,3.0118,3.0274,3.0274,3.0274,3.0273,3.0273,3.0273,2.994,3.0009,3.0005,3.0081,3.009,3.0141,3.0157,3.0178,3.0193,3.0253,3.0286,3.0287,3.0299,3.0337,3.0372,3.0371,3.0386,3.0414,3.0408,3.0289,3.0272,3.0256,3.0239,3.0417,3.0418,3.0532,3.0533,3.0534]},{"header":{"parameterUnit":"m.s-1","parameterCategory":1,"la1":30.2991,"la2":30.254,"lo1":-89.0895,"lo2":-89.0444,"dy":0.0017,"dx":0.0017,"nx":28,"ny":28,"refTime":"2024-11-27T03:00:00:Z","depth":0,"parameterNumber":3,"parameterNumberName":"V-component_of_WINDS"},"data":[0,0,0,0,0,0,0,0,0,0,0,0,0,0,0,0,0,0,0,0,0,0,0,0,0,0,0,0,0,0,0,0,0,0,0,0,0,0,0,0,0,0,0,0,0,0,0,0,0,0,0,0,0,0,0,0,0,0,5.2294,5.2294,0,5.2334,5.2334,5.2334,5.2273,5.2271,5.2269,5.2267,5.2302,5.2305,5.2308,0,0,0,0,0,0,0,0,0,0,0,0,0,5.2159,5.2162,5.2294,5.2295,5.2295,5.2334,5.2334,5.2335,5.2274,5.2271,5.2269,5.2266,5.2301,5.2304,5.2308,0,0,0,0,0,0,0,0,0,0,0,0,0,5.221,5.2163,5.2294,5.227,5.2268,5.2333,5.2334,5.2335,5.2274,5.2271,5.2268,5.2265,5.23,5.2304,5.2308,5.2398,0,0,5.2321,5.2323,0,0,0,0,0,0,0,0,5.2207,5.2215,5.2273,5.2271,5.2269,5.2296,5.2299,5.2356,5.2275,5.2272,5.2267,5.2264,5.2302,5.2306,5.232,5.24,5.2401,5.2322,5.2324,5.2326,5.2328,0,0,0,0,0,0,0,5.2204,5.2213,5.2309,5.2273,5.2272,5.2254,5.2258,5.231,5.2304,5.2272,5.2267,5.2273,5.23,5.2316,5.232,5.2401,5.2322,5.2326,5.2328,5.233,5.2556,5.2559,0,0,0,0,0,0,5.2204,5.2211,5.2308,5.2311,5.223,5.2259,5.2264,5.229,5.2303,5.2302,5.2276,5.227,5.231,5.2315,5.2321,5.2427,5.2326,5.233,5.2333,5.2553,5.2557,5.256,0,0,0,0,0,0,5.2202,5.2214,5.2307,5.226,5.227,5.2265,5.2295,5.2293,5.2308,5.2306,5.2304,5.2294,5.2308,5.2315,5.238,5.2428,5.2332,5.2336,5.2549,5.2554,5.2559,5.264,0,0,0,0,0,0,5.2198,5.2213,5.2249,5.2261,5.2273,5.2366,5.2298,5.2296,5.2317,5.231,5.2322,5.2321,5.2306,5.2374,5.2384,5.2432,5.234,5.2544,5.2551,5.2557,5.2633,5.2648,5.266,0,0,0,0,0,5.2193,5.2269,5.2251,5.2263,5.2318,5.2369,5.2376,5.2359,5.2321,5.2355,5.2354,5.2321,5.2421,5.2381,5.2392,5.2442,5.2541,5.2549,5.2556,5.2627,5.2645,5.2659,0,0,0,0,0,0,5.226,5.227,5.225,5.2332,5.2351,5.2359,5.2402,5.2378,5.2406,5.2398,5.2373,5.2376,5.2446,5.245,5.2405,5.2529,5.2474,5.2485,5.2524,5.2541,5.2554,5.2552,5.2343,0,0,0,0,0,5.2285,5.2328,5.2333,5.2405,5.2415,5.2408,5.2429,5.2415,5.2432,5.2439,5.2442,5.2459,5.2494,5.2517,5.2549,5.2633,5.2635,5.2673,5.2686,5.2697,5.2706,5.2751,5.2768,5.2586,5.2586,5.2585,0,0,5.2335,5.2346,5.2374,5.2418,5.2431,5.2475,5.2414,5.2463,5.2495,5.2445,5.2507,5.251,5.2527,5.2602,5.2635,5.2607,5.2757,5.2707,5.2715,5.2719,5.2761,5.2778,5.2793,5.2591,5.259,5.2589,0,0,5.245,5.2462,5.2524,5.2538,5.2559,5.2553,5.2568,5.258,5.2581,5.2643,5.2607,5.2643,5.2704,5.2718,5.2732,5.2852,5.2822,5.2863,5.2932,5.2976,5.299,5.3003,5.3046,5.3062,5.2872,5.2872,5.2872,0,5.2509,5.2576,5.2558,5.261,5.263,5.2589,5.265,5.2664,5.2693,5.2707,5.2676,5.2752,5.276,5.2838,5.2867,5.288,5.2895,5.2862,5.299,5.3003,5.3014,5.3055,5.3071,5.2877,5.2876,5.2876,5.2875,0,5.2648,5.2695,5.2741,5.2774,5.2798,5.2854,5.2843,5.287,5.2853,5.285,5.2913,5.2921,5.2955,5.2971,5.2954,5.3046,5.3029,5.2995,5.2939,5.3037,5.3075,5.309,5.2884,5.2882,5.2881,5.288,0,0,5.2806,5.2828,5.2846,5.286,5.288,5.2914,5.2967,5.3002,5.3026,5.3047,5.309,5.3143,5.3112,5.3128,5.3112,5.315,5.3245,5.3111,5.3111,5.3136,5.3347,5.3374,5.3392,5.3225,5.3228,5.323,5.3346,0,5.2921,5.3017,5.3002,5.3093,5.3135,5.3097,5.3143,5.3159,5.3158,5.3191,5.3188,5.3226,5.3182,5.3192,5.3228,5.3226,5.3287,5.3217,5.3265,5.3267,5.3263,5.3412,5.344,5.3549,5.3361,5.3363,5.3365,0,5.3068,5.3098,5.3194,5.3208,5.3225,5.3267,5.3297,5.3331,5.3347,5.3343,5.3363,5.3339,5.3391,5.3334,5.3404,5.3357,5.3375,5.3377,5.3381,5.3385,5.3322,5.3421,5.3583,5.36,5.3388,5.3386,5.3385,0,5.3175,5.3238,5.3304,5.3317,5.3334,5.3365,5.3373,5.3387,5.3408,5.3434,5.3448,5.3478,5.3495,5.3518,5.3503,5.3464,5.3576,5.3518,5.3573,5.3574,5.3599,5.3598,5.3768,5.361,5.361,5.3609,5.3609,0,5.3305,5.3366,5.3352,5.3393,5.3459,5.344,5.3505,5.3508,5.3521,5.356,5.3527,5.3564,5.3542,5.3576,5.3564,5.3624,5.3631,5.3629,5.3625,5.3632,5.3633,5.3644,5.3637,5.3614,5.3613,5.3612,5.3611,0,5.3436,5.3429,5.3499,5.351,5.3514,5.3562,5.3571,5.3607,5.3603,5.3653,5.3664,5.3657,5.3696,5.3683,5.3724,5.3716,5.3793,5.3778,5.3788,5.3785,5.3841,5.3836,5.4025,5.4048,5.3875,5.3876,5.3878,0,5.352,5.3566,5.3583,5.3608,5.3619,5.3659,5.3682,5.3664,5.3689,5.3712,5.3746,5.3782,5.3811,5.3875,5.3872,5.3904,5.3891,5.3954,5.3895,5.3901,5.3892,5.389,5.3895,5.3966,5.3968,5.397,5.3971,0,5.367,5.3664,5.37,5.3734,5.3763,5.3788,5.381,5.3832,5.3816,5.3845,5.3886,5.3908,5.3951,5.3988,5.4016,5.4022,5.3994,5.399,5.4005,5.4013,5.4017,5.4016,5.3821,5.3986,5.3985,5.3984,5.3983,5.3982,5.378,5.3819,5.3838,5.3878,5.3893,5.3915,5.3951,5.3952,5.3986,5.4022,5.4008,5.4055,5.407,5.4106,5.4116,5.4151,5.4126,5.4147,5.4152,5.4158,5.4166,5.4011,5.4156,5.4155,5.4155,5.4154,5.4154,0,5.3928,5.3939,5.3976,5.401,5.4041,5.4014,5.4037,5.4064,5.4107,5.4124,5.4154,5.42,5.4236,5.4236,5.4269,5.4297,5.4285,5.4306,5.4304,5.4306,5.4186,5.417,5.4315,5.4315,5.4315,5.4315,5.4315,5.4315,5.401,5.4075,5.4072,5.4144,5.4153,5.4201,5.4216,5.4236,5.425,5.4304,5.4334,5.4335,5.4345,5.4378,5.4409,5.4408,5.4422,5.4448,5.4443,5.433,5.4314,5.4299,5.4285,5.4451,5.4451,5.456,5.4561,5.4562]}]]